Terminal Aerodrome Forecast
Issued by NWS

Home | Current Version | Previous Version | Text Only | Print | Product List | Glossary On
Versions: 1 2 3 4 5 6 7 8 9 10 11 12 13 14 15 16 17 18 19 20
697
FTUS43 KDLH 021139
TAFHYR
TAF
KHYR 021139Z 0212/0312 31003KT P6SM VCSH OVC018
     FM021500 30004KT P6SM VCSH SCT018 OVC023=

USA.gov is the U.S. government's official web portal to all federal, state and local government web resources and services.